Location: Smithers
(54.7670°N, 127.1670°W)
Time: 19:44:17
(UTC-07:00)

Daily predictions for brighter satellites

Satellite Brightness Start Highest point End
(mag) Time Altitude Azimuth Time Altitude Azimuth Time Altitude Azimuth
Cosmos 1544 Rocket 3.5 21:09:03 10° S 21:13:25 75° E 21:17:52 10° NNE
Cosmos 2369 4.3 21:14:56 10° S 21:20:04 36° ESE 21:25:15 10° NE
SJ-11-01 4.3 21:18:04 10° SSE 21:22:46 86° ENE 21:27:30 10° NNW
Terra 3.7 21:20:24 10° E 21:23:16 16° NE 21:26:08 10° NNE
Cosmos 1346 Rocket 3.7 21:21:03 10° NNW 21:24:51 50° W 21:28:42 10° S
Cosmos 1633 4.0 21:25:16 10° SW 21:28:46 43° WNW 21:32:17 10° N
Cosmos 2369 Rocket 4.4 21:24:11 10° W 21:29:01 29° NW 21:33:52 10° NNE
Cosmos 1898 Rocket 3.6 21:23:47 10° NNW 21:29:10 78° ENE 21:34:28 10° SSE
Cosmos 1980 Rocket 3.8 21:26:43 10° SE 21:29:26 14° E 21:32:11 10° ENE
RESURS DK-1 2.6 21:27:02 10° NNW 21:31:10 61° NE 21:35:13 10° SE
Cosmos 1536 4.1 21:27:59 10° SSW 21:31:50 45° WNW 21:35:45 10° N
ERS-1 Rocket 3.1 21:30:15 10° SSE 21:35:17 81° WSW 21:40:21 10° NNW
ARGOS 3.9 21:31:15 10° SE 21:36:12 39° ENE 21:41:11 10° N
BREEZE-M DEB (TANK) 4.1 21:38:11 10° WSW 21:41:20 42° S 21:49:32 11° ESE
Cosmos 2173 Rocket 4.4 21:40:59 10° SSE 21:46:55 43° E 21:52:50 10° NNE
NOSS 2-1 (D) 3.5 21:43:21 10° SW 21:47:23 67° SE 21:52:20 10° NE
Cosmos 2227 Rocket 3.4 21:43:03 10° NW 21:48:19 40° WSW 21:53:33 10° S
NOSS 2-1 (C) 3.5 21:44:22 10° SW 21:48:24 67° SE 21:53:22 10° NE
Cosmos 1825 Rocket 3.8 21:44:01 10° N 21:48:25 54° ENE 21:52:32 11° SSE
Cosmos 1500 3.5 21:45:39 10° SSE 21:49:14 44° E 21:52:51 10° NNE
Cosmos 1605 Rocket 4.1 21:43:23 10° S 21:49:44 90° WNW 21:56:02 10° N
Cosmos 2263 Rocket 3.4 21:46:35 10° NNW 21:51:28 30° NE 21:56:21 10° E
ALOS 4.5 21:49:46 10° SSW 21:53:39 25° W 21:57:34 10° NW
Cosmos 2061 Rocket 4.3 21:47:53 10° SSE 21:53:52 47° E 21:59:49 10° NNE
Cosmos 2100 Rocket 4.2 21:49:42 10° SSE 21:55:45 52° E 22:01:46 10° NNE
Cosmos 1953 Rocket 3.9 21:52:24 10° N 21:56:44 50° ENE 22:00:21 14° SE
MetOp-B 4.2 21:51:46 10° SSE 21:57:06 75° ENE 22:02:28 10° NNW
Cosmos 1340 2.9 21:54:34 10° N 21:58:20 55° ENE 22:01:16 16° SSE
Cosmos 1943 Rocket 4.2 21:54:57 10° WSW 22:00:02 33° NW 22:05:09 10° NNE
Cosmos 2297 Rocket 3.3 21:58:53 10° NW 22:04:10 41° WSW 22:09:26 10° S
NOSS 2-1 (E) 3.6 22:00:15 10° SW 22:04:24 81° SE 22:09:36 10° NE
Cosmos 1515 4.5 22:00:37 10° NNW 22:04:24 52° W 22:08:09 10° S
Cosmos 2227 4.3 21:59:38 10° NNW 22:05:26 75° NE 22:10:03 16° SE
deb Chang Zheng 4 3.8 22:01:47 10° NNE 22:06:11 54° ESE 22:10:33 10° S
Lacrosse 5 2.4 22:01:19 10° WNW 22:06:12 48° SW 22:09:59 16° SSE
Cosmos 1656 3.9 22:02:09 10° S 22:07:29 46° ESE 22:12:47 10° NE
Cosmos 972 Rocket 4.5 22:02:21 10° NNW 22:07:58 77° WSW 22:14:11 10° SSE
H-2A R/B 2.3 22:04:03 10° S 22:08:08 66° WSW 22:12:18 10° NNW
Cosmos 1975 3.2 22:11:43 10° SSW 22:15:49 69° WNW 22:19:56 10° N
Cosmos 1758 Rocket 3.6 22:11:41 10° N 22:16:04 64° ENE 22:19:08 19° SSE
Cosmos 2208 Rocket 4.3 22:10:57 10° SW 22:16:18 73° WNW 22:21:46 10° NNE
SPOT 5 3.1 22:11:16 10° S 22:16:20 72° WSW 22:21:08 10° NNW
Cosmos 1743 2.9 22:16:41 14° S 22:19:55 54° E 22:23:47 10° NNE
USA 215 3.4 22:16:43 17° SE 22:21:51 63° SSW 22:28:22 10° WNW
Lacrosse 5 rocket 3.5 22:20:28 10° W 22:22:19 13° SW 22:24:09 10° SSW
YAOGAN 6 2.8 22:21:12 15° S 22:24:09 70° WSW 22:27:53 10° NNW
Nimbus 7 Rocket 4.4 22:24:35 10° NNE 22:30:41 78° ESE 22:36:46 10° SSW
Cosmos 2228 4.0 22:29:55 24° ESE 22:31:13 28° E 22:34:53 10° NNE
Cosmos 1725 Rocket 4.4 22:26:55 17° SSE 22:31:19 45° E 22:37:13 10° NNE
Cosmos 1842 3.2 22:27:25 10° N 22:31:22 72° ENE 22:33:31 25° SSE
Cosmos 2278 Rocket 4.5 22:27:53 10° NNW 22:31:43 18° NNE 22:35:33 10° ENE
PSLV R/B 3.8 22:31:29 19° S 22:33:24 51° W 22:36:26 10° NNW
Cosmos 372 Rocket 4.5 22:29:09 10° NNW 22:34:07 47° NE 22:37:03 23° ESE
H-2A R/B 2.2 22:31:29 23° SE 22:34:30 56° ENE 22:39:20 10° N
GEOS 3 Rocket 4.4 22:31:15 10° ENE 22:35:33 27° ESE 22:37:09 23° SSE
Cosmos 1459 Rocket 3.9 22:29:57 10° S 22:36:01 86° E 22:42:12 10° NNE
DELTA 2 DEB (DPAF) 4.4 22:34:23 25° SE 22:36:48 56° ENE 22:41:13 10° N
Cosmos 1937 Rocket 4.3 22:31:58 10° NW 22:37:00 48° WSW 22:41:24 13° S
IGS 5A 4.1 22:35:41 26° ESE 22:37:32 41° ENE 22:41:28 10° N
CZ-4 SHROUD 3.8 22:36:07 21° S 22:37:54 52° WSW 22:40:56 10° NNW
Envisat 4.4 22:33:27 10° SSW 22:38:06 35° W 22:42:47 10° NNW
Cosmos 2098 Rocket 4.1 22:36:06 14° S 22:41:54 58° E 22:47:29 10° NNE
NOSS 7 (D) 4.3 22:38:56 10° SW 22:42:17 88° SE 22:46:01 10° NE
Cosmos 2058 Rocket 3.4 22:40:15 25° SSE 22:42:34 49° E 22:46:57 10° NNE
CZ-4 R/B 4.3 22:38:33 10° NNE 22:43:00 40° E 22:44:58 27° SSE
Landsat 7 3.8 22:42:10 25° SSE 22:44:54 74° ENE 22:49:41 10° NNW
Cosmos 1707 4.1 22:44:01 10° N 22:47:23 26° ENE 22:48:25 23° E
ASTEX 1 3.5 22:42:28 10° N 22:47:31 83° W 22:52:07 12° SSW
ATLAS CENTAUR R/B 3.5 22:44:38 10° W 22:49:11 35° NNW 22:53:31 10° NE
Cosmos 1697 Rocket 2.6 22:45:03 10° SSW 22:50:39 69° ESE 22:56:18 10° NE
Cosmos 2278 4.3 22:45:26 10° SW 22:51:04 61° NW 22:56:45 10° NNE
SPOT 1/Viking Rocket 4.0 22:49:24 17° S 22:53:23 61° WSW 22:58:35 10° NNW
SL-16 R/B 3.4 22:53:37 22° ESE 22:54:02 23° ESE 22:58:21 10° NE
SL-08 RB Rocket 3.9 22:51:30 23° S 22:54:26 71° WSW 22:59:06 10° NNW
Cosmos 1238 4.3 22:51:18 10° NNW 22:55:02 86° W 22:56:02 42° S
Cosmos 1606 Rocket 3.5 22:52:26 17° S 22:55:47 89° WNW 23:00:16 10° NNE
Meteor 2-5 Rocket 4.2 22:50:38 10° N 22:56:29 53° ENE 22:59:27 28° SE
Cosmos 1802 Rocket 4.2 22:51:53 10° SSW 22:58:18 80° W 23:04:48 10° N
Cosmos 2233 Rocket 4.3 22:57:06 27° SSE 23:00:09 47° E 23:06:05 10° NNE
Terra 1.8 22:58:02 31° SSE 23:00:17 74° ENE 23:05:04 10° NNW
CZ-4B R/B 3.3 22:56:25 10° NNE 23:01:10 67° ESE 23:03:53 25° S
BREEZE-M DEB (TANK) 4.1 22:56:49 10° SW 23:03:36 26° S 23:03:49 26° S
Cosmos 2369 4.4 22:58:30 10° SW 23:04:05 56° NW 23:09:46 10° NNE
Meteor 1-15 Rocket 4.4 23:00:38 24° S 23:04:15 62° E 23:10:02 10° NNE
SAR-Lupe-2 4.3 23:03:50 35° E 23:04:29 39° ENE 23:07:50 10° N
Cosmos 1844 Rocket 4.2 23:00:24 10° NNW 23:05:12 28° NE 23:09:14 13° E
SL-08 R/B 4.4 23:00:01 14° S 23:05:30 87° E 23:11:43 10° NNE
CARTOSAT-1 3.5 23:04:51 36° SSE 23:06:34 83° ENE 23:10:56 10° NNW
RESURS DK-1 4.3 23:05:41 10° WNW 23:08:54 22° WSW 23:11:09 15° SSW
Cosmos 1980 Rocket 2.2 23:07:25 14° SSW 23:12:22 65° ESE 23:18:02 10° NE
Cosmos 2360 Rocket 4.0 23:14:22 14° E 23:14:22 14° E 23:16:35 10° ENE
Cosmos 1666 2.6 23:12:37 36° SSW 23:14:05 84° WNW 23:17:54 10° N
Spot 4 3.8 23:12:59 37° SSE 23:14:52 75° ENE 23:19:40 10° NNW
ARGOS 4.0 23:12:35 17° SSW 23:16:24 45° W 23:21:37 10° NNW
Cosmos 1125 Rocket 3.7 23:12:17 10° NNW 23:17:27 64° WSW 23:19:49 32° S
Cosmos 2016 Rocket 4.2 23:12:52 10° SSW 23:18:59 69° WNW 23:25:13 10° N
Cosmos 1726 Rocket 3.9 23:17:25 19° SSW 23:20:28 63° WNW 23:24:53 10° N
BREEZE-M DEB (TANK) 4.4 23:01:30 10° WNW 23:20:47 49° SW 23:23:43 30° SSE
CZ-4C R/B 3.9 23:19:23 33° S 23:21:15 65° WSW 23:25:39 10° NNW
SL-24 R/B - RUBIN 2 4.4 23:17:36 10° SW 23:23:49 89° SE 23:30:34 10° NE
Cosmos 1812 Rocket 3.9 23:26:44 43° ESE 23:27:13 45° E 23:31:23 10° NNE
Meteor 1-24 Rocket 4.2 23:21:37 10° N 23:27:33 55° ENE 23:29:59 34° SE
Cosmos 1763 Rocket 3.3 23:24:49 21° SSW 23:28:15 85° ESE 23:33:22 10° NNE
Cosmos 1441 Rocket 3.7 23:26:15 10° N 23:30:06 45° ENE 23:30:34 43° E
Cosmos 1378 4.2 23:27:30 10° N 23:30:57 31° ENE 23:31:10 31° ENE
DMSP B5D2-2 4.1 23:28:39 10° NNE 23:33:55 65° ESE 23:35:46 40° S
Cosmos 405 Rocket 3.0 23:30:25 10° NNW 23:34:12 60° W 23:34:54 49° SSW
Cosmos 2263 Rocket 2.1 23:30:26 10° NW 23:36:02 82° WSW 23:38:03 41° SSE
Cosmos 1464 Rocket 4.5 23:38:35 35° SE 23:40:36 46° E 23:46:37 10° NNE
Cosmos 1437 4.2 23:39:42 10° N 23:42:22 29° NE 23:42:22 29° NE
Cosmos 2322 Rocket 2.4 23:42:06 42° SSE 23:43:15 49° ESE 23:48:39 10° NE
GP-B 3.0 23:41:12 10° N 23:45:41 84° W 23:46:46 51° S
Genesis I 3.1 23:42:52 10° NW 23:46:53 86° NE 23:47:13 74° ESE
Cosmos 2360 4.1 23:43:36 24° SSW 23:47:07 80° ESE 23:52:54 10° NE
Lacrosse 5 3.9 23:45:39 10° W 23:48:10 14° WSW 23:49:10 13° SW
Cosmos 841 Rocket 3.5 23:44:44 22° SSW 23:48:14 80° WNW 23:53:29 10° NNE
Okean 3 Rocket 3.4 23:51:01 10° NNW 23:55:27 88° E 23:56:07 65° SSE
